CT1OY Oeiras PT current weather conditions

sailwx.info

Wind from 286 at 10 knots gusting 16

Air temperature 20.6° C
Dewpoint 17.0° C

Last reported at 2016-Aug-30 17:34 UTC.
Time now 2016-Aug-30 18:50 UTC

Location: N 38°44' W 009°17'.
View on Google Maps.

See reports from other nearby stations

  
Tides and Currents Weather Stations Pressure Air Temp Water Temp Dewpoint Dewpoint Depression Visibility Wind Speed Wind Dir Waves Ship Positions
date/time (UTC)wind fromknots sea level pressurealtimeterstation pressurevisibilityair tempwater tempwave heightnotes
2016-Aug-30 17:34 286 10 gusting 16 20.6
2016-Aug-30 17:14 339 3 gusting 14 20.6
2016-Aug-30 17:04 207 12 gusting 17 20.6
2016-Aug-30 16:34 139 21.1
2016-Aug-30 16:24 292 21.1
2016-Aug-30 16:14 330 1 gusting 17 20.6
2016-Aug-30 16:04 295 6 gusting 19 20.6
2016-Aug-30 15:44 181 10 gusting 19 21.1
2016-Aug-30 15:34 288 21.1
2016-Aug-30 15:24 291 2 gusting 19 21.1
2016-Aug-30 15:04 242 5 gusting 16 21.7
2016-Aug-30 14:24 282 6 gusting 15 21.7
2016-Aug-30 14:14 297 7 gusting 19 21.7
2016-Aug-30 14:04 300 6 gusting 17 22.2
2016-Aug-30 13:54 245 2 gusting 13 22.2
2016-Aug-30 13:34 308 6 gusting 13 22.2
2016-Aug-30 13:24 269 1 gusting 12 22.2
2016-Aug-30 12:54 337 23.3
2016-Aug-30 12:44 300 22.8
2016-Aug-30 12:34 068 0 22.8
2016-Aug-30 12:24 284 22.2
2016-Aug-30 12:04 329 0 22.2
2016-Aug-30 11:54 038 0 gusting 11 22.2
2016-Aug-30 10:54 316 1 gusting 10 21.7
2016-Aug-30 10:44 305 0 21.7
2016-Aug-30 10:34 316 4 gusting 12 21.7
2016-Aug-30 10:04 278 21.7
2016-Aug-30 09:44 288 0 21.1
2016-Aug-30 09:34 027 20.6
2016-Aug-30 09:24 338 20.6
2016-Aug-30 09:14 348 20.6
2016-Aug-30 09:04 280 20.0
2016-Aug-30 08:54 277 0 gusting 11 19.4
2016-Aug-30 08:34 328 0 gusting 11 19.4
2016-Aug-30 08:04 294 4 gusting 17 18.9
2016-Aug-30 07:54 280 3 gusting 15 18.9
2016-Aug-30 07:34 325 3 gusting 14 18.3
2016-Aug-30 07:24 280 3 gusting 14 18.3
2016-Aug-30 07:14 315 9 gusting 15 17.8
2016-Aug-30 07:04 292 6 gusting 15 17.8
2016-Aug-30 06:54 329 10 gusting 13 17.8
2016-Aug-30 06:24 263 5 gusting 15 17.8
2016-Aug-30 06:14 293 6 gusting 16 17.2
2016-Aug-30 05:04 276 6 gusting 17 17.8
2016-Aug-30 04:54 269 3 gusting 13 17.8
2016-Aug-30 04:34 349 6 gusting 13 17.8
2016-Aug-30 04:24 288 4 17.8
2016-Aug-30 04:04 295 5 gusting 17 17.8
2016-Aug-30 03:24 310 10 gusting 15 17.8
2016-Aug-30 03:04 290 2 gusting 13 17.8
2016-Aug-30 02:34 293 3 gusting 13 17.8
2016-Aug-30 02:24 290 3 gusting 17 17.8
2016-Aug-30 02:04 282 7 gusting 12 17.8
2016-Aug-30 01:44 349 4 gusting 12 17.8
2016-Aug-30 01:34 289 5 gusting 12 17.8
2016-Aug-30 01:24 034 2 17.8
2016-Aug-30 01:04 294 2 17.8
2016-Aug-30 00:34 248 4 gusting 12 17.8
2016-Aug-30 00:24 310 1 17.8
2016-Aug-30 00:04 018 1 17.8
2016-Aug-29 23:44 354 4 17.8
2016-Aug-29 23:34 355 2 17.8
2016-Aug-29 23:04 302 4 gusting 12 17.8
2016-Aug-29 22:54 346 2 gusting 11 17.8
2016-Aug-29 22:44 327 1 17.8
2016-Aug-29 22:34 334 1 gusting 13 17.8
2016-Aug-29 22:24 309 2 gusting 12 17.8
2016-Aug-29 22:14 293 6 gusting 14 17.8
2016-Aug-29 21:44 288 1 gusting 13 17.8
2016-Aug-29 21:34 311 0 gusting 13 17.8
2016-Aug-29 21:24 279 3 gusting 10 17.8
2016-Aug-29 20:44 295 0 17.8
2016-Aug-29 20:24 352 17.8
2016-Aug-29 20:14 356 17.8
2016-Aug-29 20:04 341 17.8
2016-Aug-29 19:54 292 18.3
2016-Aug-29 19:44 312 18.3
2016-Aug-29 19:34 245 18.3
2016-Aug-29 19:04 345 18.9
2016-Aug-29 18:54 271 19.4
2016-Aug-29 18:34 270 20.0
2016-Aug-29 18:24 291 4 gusting 13 20.0
2016-Aug-29 18:14 269 0 gusting 14 20.6
2016-Aug-29 18:04 309 0 gusting 15 21.1
2016-Aug-29 17:54 328 21.1
2016-Aug-29 17:34 307 1 gusting 13 22.2
2016-Aug-29 16:54 021 5 gusting 13 23.3
2016-Aug-29 16:44 338 18 gusting 18 23.3
2016-Aug-29 16:34 314 1 23.9
2016-Aug-29 16:24 022 1 23.9
2016-Aug-29 16:14 290 0 gusting 13 23.9
2016-Aug-29 16:04 350 23.9
2016-Aug-29 15:44 308 9 gusting 14 23.9
2016-Aug-29 15:34 308 6 gusting 11 24.4
2016-Aug-29 15:14 283 6 gusting 13 24.4
2016-Aug-29 14:54 253 6 gusting 17 25.0
2016-Aug-29 14:24 252 4 gusting 13 25.0
2016-Aug-29 14:14 277 1 gusting 13 24.4
2016-Aug-29 13:54 352 6 gusting 17 24.4
2016-Aug-29 13:24 299 12 gusting 16 24.4
2016-Aug-29 13:04 021 25.0
2016-Aug-29 12:54 297 1 25.0
2016-Aug-29 12:34 316 0 25.0
2016-Aug-29 12:24 098 0 gusting 13 24.4
2016-Aug-29 12:04 288 0 24.4
2016-Aug-29 11:54 323 24.4
2016-Aug-29 11:24 342 4 23.9
2016-Aug-29 11:14 290 23.9
2016-Aug-29 10:44 349 22.8
2016-Aug-29 10:34 262 22.2
2016-Aug-29 10:14 319 22.2
2016-Aug-29 09:54 347 21.1
2016-Aug-29 09:44 300 21.1
2016-Aug-29 09:24 297 20.6
2016-Aug-29 09:14 291 2 gusting 11 20.0
2016-Aug-29 08:54 063 2 gusting 18 19.4
2016-Aug-29 08:34 271 0 18.9
2016-Aug-29 08:04 312 17.8
2016-Aug-29 07:34 278 11 gusting 13 17.2
2016-Aug-29 07:24 287 1 gusting 13 17.2
2016-Aug-29 07:04 064 7 gusting 14 16.7
2016-Aug-29 06:54 349 6 gusting 14 16.7
2016-Aug-29 06:34 298 3 gusting 16 16.1
2016-Aug-29 06:24 309 4 gusting 13 16.1
2016-Aug-29 05:54 234 5 gusting 12 16.1
2016-Aug-29 05:24 312 2 gusting 12 16.1
2016-Aug-29 03:54 278 16.7
2016-Aug-29 03:44 316 0 gusting 10 16.7
2016-Aug-29 03:34 064 4 gusting 10 16.7
2016-Aug-29 03:14 269 16.7
2016-Aug-29 03:04 075 16.7
2016-Aug-29 02:54 082 16.7
2016-Aug-29 02:44 261 16.7
2016-Aug-29 02:34 300 16.7
2016-Aug-29 02:14 300 16.7
2016-Aug-29 01:44 338 17.2
2016-Aug-29 01:34 314 17.2
2016-Aug-29 01:14 342 17.2
2016-Aug-29 00:54 355 17.2
2016-Aug-29 00:44 340 17.8
2016-Aug-29 00:24 036 17.8
2016-Aug-29 00:14 347 3 gusting 10 17.8
2016-Aug-28 23:54 282 2 gusting 13 17.8
2016-Aug-28 23:44 333 7 gusting 11 17.8
2016-Aug-28 23:14 022 17.8
2016-Aug-28 23:04 008 17.8
2016-Aug-28 22:54 290 1 gusting 11 17.8
2016-Aug-28 22:44 266 17.8
2016-Aug-28 22:04 043 1 gusting 13 18.3
2016-Aug-28 21:54 295 1 gusting 16 18.3
2016-Aug-28 21:34 027 18.3
2016-Aug-28 21:24 273 18.3
2016-Aug-28 21:14 309 1 gusting 13 18.9
2016-Aug-28 21:04 360 3 gusting 12 18.9
2016-Aug-28 20:44 291 6 gusting 13 18.9
2016-Aug-28 20:24 359 0 18.9
2016-Aug-28 20:14 329 19.4
2016-Aug-28 20:04 276 0 gusting 12 19.4
2016-Aug-28 19:44 025 10 gusting 13 19.4
2016-Aug-28 19:34 342 8 gusting 16 20.0
2016-Aug-28 19:24 328 7 gusting 14 20.0
2016-Aug-28 19:14 315 5 gusting 15 20.0
2016-Aug-28 19:04 315 1 gusting 15 20.6
2016-Aug-28 18:24 300 2 gusting 14 22.2
2016-Aug-28 18:14 297 22.2
2016-Aug-28 18:04 274 2 gusting 13 22.2